| time (UTC) | temp F | wind direction | speed MPH | gust MPH | rain 1hr in | rain 24hr in | rain mn in | humidity % | barometer mb |
| 20260503211902 | 69 | 0.0 | 0.0 | 0.00 | 0.00 | 0.00 | 45 | 1015.1 | |
| 20260503210856 | 69 | 0.0 | 0.0 | 0.00 | 0.00 | 0.00 | 45 | 1014.8 | |
| 20260503205851 | 69 | 0.0 | 0.0 | 0.00 | 0.00 | 0.00 | 45 | 1014.7 | |
| 20260503204846 | 70 | 0.0 | 0.0 | 0.00 | 0.00 | 0.00 | 44 | 1015.8 | |
| 20260503203840 | 70 | 0.0 | 0.0 | 0.00 | 0.00 | 0.00 | 44 | 1015.5 | |
| 20260503202835 | 70 | 0.0 | 0.0 | 0.00 | 0.00 | 0.00 | 43 | 1014.9 | |
| 20260503201830 | 71 | 0.0 | 0.0 | 0.00 | 0.00 | 0.00 | 43 | 1015.7 | |
| 20260503200824 | 71 | 0.0 | 0.0 | 0.00 | 0.00 | 0.00 | 43 | 1016.0 | |
| 20260503195819 | 71 | 0.0 | 0.0 | 0.00 | 0.00 | 0.00 | 43 | 1016.0 | |
| 20260503194814 | 70 | 0.0 | 0.0 | 0.00 | 0.00 | 0.00 | 43 | 1015.1 | |
| 20260503193808 | 71 | 0.0 | 0.0 | 0.00 | 0.00 | 0.00 | 42 | 1016.1 | |
| 20260503192803 | 72 | 0.0 | 0.0 | 0.00 | 0.00 | 0.00 | 42 | 1016.0 | |
| 20260503191758 | 72 | 0.0 | 0.0 | 0.00 | 0.00 | 0.00 | 42 | 1015.9 | |
| 20260503190752 | 71 | 0.0 | 0.0 | 0.00 | 0.00 | 0.00 | 42 | 1015.1 | |
| 20260503185747 | 71 | 0.0 | 0.0 | 0.00 | 0.00 | 0.00 | 42 | 1015.1 | |
| 20260503184742 | 72 | 0.0 | 0.0 | 0.00 | 0.00 | 0.00 | 41 | 1015.9 | |
| 20260503183736 | 73 | 0.0 | 0.0 | 0.00 | 0.00 | 0.00 | 41 | 1015.8 | |
| 20260503182731 | 73 | 0.0 | 0.0 | 0.00 | 0.00 | 0.00 | 41 | 1015.6 | |
| 20260503181726 | 73 | 0.0 | 0.0 | 0.00 | 0.00 | 0.00 | 41 | 1015.8 | |
| 20260503180720 | 73 | 0.0 | 0.0 | 0.00 | 0.00 | 0.00 | 41 | 1014.9 | |
| 20260503175715 | 74 | 0.0 | 0.0 | 0.00 | 0.00 | 0.00 | 40 | 1015.3 | |
| 20260503174710 | 73 | 0.0 | 0.0 | 0.00 | 0.00 | 0.00 | 40 | 1014.7 | |
| 20260503173704 | 74 | 0.0 | 0.0 | 0.00 | 0.00 | 0.00 | 40 | 1015.4 | |
| 20260503172659 | 75 | 0.0 | 0.0 | 0.00 | 0.00 | 0.00 | 40 | 1015.6 | |
| 20260503171654 | 75 | 0.0 | 0.0 | 0.00 | 0.00 | 0.00 | 40 | 1015.3 | |
| 20260503170648 | 76 | 0.0 | 0.0 | 0.00 | 0.00 | 0.00 | 39 | 1015.3 | |
| 20260503150544 | 78 | 0.0 | 0.0 | 0.00 | 0.00 | 0.00 | 39 | 1015.9 | |
| 20260503130440 | 77 | 0.0 | 0.0 | 0.00 | 0.00 | 0.00 | 42 | 1017.3 | |
| 20260503110336 | 73 | 0.0 | 0.0 | 0.00 | 0.00 | 0.00 | 45 | 1018.0 | |
| 20260503090232 | 69 | 0.0 | 0.0 | 0.00 | 0.00 | 0.00 | 50 | 1019.8 | |
| 20260503081205 | 67 | 0.0 | 0.0 | 0.00 | 0.00 | 0.00 | 52 | 1020.1 | |
| 20260503080200 | 66 | 0.0 | 0.0 | 0.00 | 0.00 | 0.00 | 52 | 1019.3 | |
| 20260503072138 | 65 | 0.0 | 0.0 | 0.00 | 0.00 | 0.00 | 55 | 1020.1 | |
| 20260503071133 | 65 | 0.0 | 0.0 | 0.00 | 0.00 | 0.00 | 56 | 1019.9 | |
| 20260503070128 | 63 | 0.0 | 0.0 | 0.00 | 0.00 | 0.00 | 55 | 1019.2 | |
| 20260503055050 | 58 | 0.0 | 0.0 | 0.00 | 0.00 | 0.00 | 61 | 1020.3 | |
| 20260503054045 | 56 | 0.0 | 0.0 | 0.00 | 0.00 | 0.00 | 62 | 1019.2 | |
| 20260503053040 | 56 | 0.0 | 0.0 | 0.00 | 0.00 | 0.00 | 63 | 1020.2 | |
| 20260503052034 | 54 | 0.0 | 0.0 | 0.00 | 0.00 | 0.00 | 63 | 1019.1 | |
| 20260503051029 | 54 | 0.0 | 0.0 | 0.00 | 0.00 | 0.00 | 63 | 1020.2 | |
| 20260503050024 | 53 | 0.0 | 0.0 | 0.00 | 0.00 | 0.00 | 62 | 1020.1 | |
| 20260503045018 | 52 | 0.0 | 0.0 | 0.00 | 0.00 | 0.00 | 62 | 1020.2 | |
| 20260503044013 | 52 | 0.0 | 0.0 | 0.00 | 0.00 | 0.00 | 62 | 1020.4 | |
| 20260503043008 | 51 | 0.0 | 0.0 | 0.00 | 0.00 | 0.00 | 62 | 1020.4 | |
| 20260503042002 | 51 | 0.0 | 0.0 | 0.00 | 0.00 | 0.00 | 60 | 1019.3 | |
| 20260503040957 | 49 | 0.0 | 0.0 | 0.00 | 0.00 | 0.00 | 59 | 1020.3 | |
| 20260503035952 | 50 | 0.0 | 0.0 | 0.00 | 0.00 | 0.00 | 58 | 1020.3 | |
| 20260503034946 | 50 | 0.0 | 0.0 | 0.00 | 0.00 | 0.00 | 59 | 1020.5 | |
| 20260503033941 | 49 | 0.0 | 0.0 | 0.00 | 0.00 | 0.00 | 58 | 1019.2 | |
| 20260503032936 | 51 | 0.0 | 0.0 | 0.00 | 0.00 | 0.00 | 58 | 1020.4 | |
| 20260503031930 | 50 | 0.0 | 0.0 | 0.00 | 0.00 | 0.00 | 59 | 1020.1 | |
| 20260503030925 | 49 | 0.0 | 0.0 | 0.00 | 0.00 | 0.00 | 58 | 1019.1 | |
| 20260503025920 | 51 | 0.0 | 0.0 | 0.00 | 0.00 | 0.00 | 59 | 1020.3 | |
| 20260503024914 | 50 | 0.0 | 0.0 | 0.00 | 0.00 | 0.00 | 56 | 1020.3 | |
| 20260503023909 | 51 | 0.0 | 0.0 | 0.00 | 0.00 | 0.00 | 57 | 1020.1 | |
| 20260503022904 | 51 | 0.0 | 0.0 | 0.00 | 0.00 | 0.00 | 59 | 1020.3 | |
| 20260503021858 | 50 | 0.0 | 0.0 | 0.00 | 0.00 | 0.00 | 57 | 1018.8 | |
| 20260503020853 | 51 | 0.0 | 0.0 | 0.00 | 0.00 | 0.00 | 57 | 1020.1 | |
| 20260503015848 | 51 | 0.0 | 0.0 | 0.00 | 0.00 | 0.00 | 57 | 1019.2 | |
| 20260503014842 | 52 | 0.0 | 0.0 | 0.00 | 0.00 | 0.00 | 57 | 1020.0 | |
| 20260503013837 | 51 | 0.0 | 0.0 | 0.00 | 0.00 | 0.00 | 57 | 1018.9 | |
| 20260503012832 | 51 | 0.0 | 0.0 | 0.00 | 0.00 | 0.00 | 58 | 1019.1 | |
| 20260503011826 | 51 | 0.0 | 0.0 | 0.00 | 0.00 | 0.00 | 57 | 1020.1 | |
| 20260503010821 | 53 | 0.0 | 0.0 | 0.00 | 0.00 | 0.00 | 57 | 1020.2 | |
| 20260503005815 | 52 | 0.0 | 0.0 | 0.00 | 0.00 | 0.00 | 56 | 1020.5 | |
| 20260503004810 | 52 | 0.0 | 0.0 | 0.00 | 0.00 | 0.00 | 57 | 1019.3 | |
| 20260503003805 | 52 | 0.0 | 0.0 | 0.00 | 0.00 | 0.00 | 57 | 1020.3 | |
| 20260503002759 | 54 | 0.0 | 0.0 | 0.00 | 0.00 | 0.00 | 56 | 1019.3 | |
| 20260503001754 | 53 | 0.0 | 0.0 | 0.00 | 0.00 | 0.00 | 55 | 1020.5 | |
| 20260503000749 | 54 | 0.0 | 0.0 | 0.00 | 0.00 | 0.00 | 55 | 1020.3 | |
| 20260502235743 | 53 | 0.0 | 0.0 | 0.00 | 0.00 | 0.00 | 55 | 1019.5 | |
| 20260502234738 | 55 | 0.0 | 0.0 | 0.00 | 0.00 | 0.00 | 54 | 1020.6 | |
| 20260502233733 | 55 | 0.0 | 0.0 | 0.00 | 0.00 | 0.00 | 55 | 1020.9 | |
| 20260502232727 | 55 | 0.0 | 0.0 | 0.00 | 0.00 | 0.00 | 55 | 1020.9 | |
| 20260502231722 | 54 | 0.0 | 0.0 | 0.00 | 0.00 | 0.00 | 55 | 1019.8 | |
| 20260502225711 | 56 | 0.0 | 0.0 | 0.00 | 0.00 | 0.00 | 56 | 1020.9 | |
| 20260502224706 | 55 | 0.0 | 0.0 | 0.00 | 0.00 | 0.00 | 55 | 1021.0 | |
| 20260502223701 | 55 | 0.0 | 0.0 | 0.00 | 0.00 | 0.00 | 54 | 1020.1 | |
| 20260502222655 | 56 | 0.0 | 0.0 | 0.00 | 0.00 | 0.00 | 54 | 1021.0 | |
| 20260502221650 | 54 | 0.0 | 0.0 | 0.00 | 0.00 | 0.00 | 53 | 1020.2 | |
| 20260502220645 | 56 | 0.0 | 0.0 | 0.00 | 0.00 | 0.00 | 54 | 1021.4 | |
| 20260502215639 | 57 | 0.0 | 0.0 | 0.00 | 0.00 | 0.00 | 53 | 1021.4 | |
| 20260502214634 | 57 | 0.0 | 0.0 | 0.00 | 0.00 | 0.00 | 52 | 1021.1 | |
| 20260502213629 | 58 | 0.0 | 0.0 | 0.00 | 0.00 | 0.00 | 52 | 1021.2 | |
| 20260502212623 | 57 | 0.0 | 0.0 | 0.00 | 0.00 | 0.00 | 53 | 1021.3 |